AAL27 TISX-TAPA

Flight info

Callsign AAL27
Flight time 0h 38m
Altitude 21000
Route HMLTN9 COY G633 ANU
Aircraft A320/M-SDE3FGHIRWY/LB1

Departure

Time 2026-05-05 00:05
Airport Henry E. Rohlsen Airport (TISX)

Arrival

Time 2026-05-05 00:43
Airport V. C. Bird International Airport (TAPA)
Time Latitude Longitude Altitude Speed Heading
2026-05-04 23:47 17.69994 -64.79626 55 ft 0 kts 174°
2026-05-04 23:57 17.70008 -64.79627 56 ft 2 kts 174°
2026-05-04 23:57 17.70023 -64.79629 56 ft 2 kts 174°
2026-05-04 23:58 17.70038 -64.79631 56 ft 2 kts 176°
2026-05-04 23:58 17.70053 -64.79627 56 ft 2 kts 207°
2026-05-04 23:58 17.70065 -64.79618 56 ft 2 kts 231°
2026-05-04 23:58 17.70073 -64.79604 56 ft 2 kts 254°
2026-05-04 23:59 17.70075 -64.79597 56 ft 1 kts 268°
2026-05-04 23:59 17.70075 -64.79592 56 ft 0 kts 264°
2026-05-05 00:01 17.70075 -64.79593 56 ft 0 kts 264°
2026-05-05 00:01 17.70070 -64.79635 56 ft 10 kts 263°
2026-05-05 00:01 17.70058 -64.79742 57 ft 19 kts 262°
2026-05-05 00:01 17.70040 -64.79908 59 ft 26 kts 263°
2026-05-05 00:02 17.70019 -64.80116 62 ft 31 kts 264°
2026-05-05 00:02 17.69997 -64.80347 66 ft 30 kts 265°
2026-05-05 00:02 17.69975 -64.80557 70 ft 27 kts 262°
2026-05-05 00:02 17.69955 -64.80747 74 ft 24 kts 263°
2026-05-05 00:03 17.69937 -64.80917 77 ft 22 kts 264°
2026-05-05 00:03 17.69923 -64.81074 80 ft 20 kts 264°
2026-05-05 00:03 17.69907 -64.81221 83 ft 19 kts 263°
2026-05-05 00:03 17.69890 -64.81361 84 ft 18 kts 262°
2026-05-05 00:04 17.69876 -64.81496 86 ft 18 kts 265°
2026-05-05 00:04 17.69906 -64.81606 87 ft 16 kts 339°
2026-05-05 00:04 17.70010 -64.81600 87 ft 15 kts 60°
2026-05-05 00:04 17.70026 -64.81440 86 ft 45 kts 84°
2026-05-05 00:05 17.70087 -64.80842 77 ft 116 kts 83°
2026-05-05 00:05 17.70199 -64.79791 146 ft 164 kts 83°
2026-05-05 00:05 17.70386 -64.78627 752 ft 166 kts 79°
2026-05-05 00:05 17.70593 -64.77399 1350 ft 177 kts 83°
2026-05-05 00:06 17.70863 -64.76151 2138 ft 177 kts 75°
2026-05-05 00:06 17.71327 -64.74947 2614 ft 188 kts 69°
2026-05-05 00:06 17.71908 -64.73632 2937 ft 210 kts 68°
2026-05-05 00:06 17.72546 -64.72169 3346 ft 230 kts 68°
2026-05-05 00:07 17.73127 -64.70554 3823 ft 246 kts 81°
2026-05-05 00:07 17.73157 -64.68731 4521 ft 254 kts 99°
2026-05-05 00:07 17.72791 -64.66943 5381 ft 256 kts 103°
2026-05-05 00:07 17.72377 -64.65105 6233 ft 260 kts 103°
2026-05-05 00:08 17.71958 -64.63247 7058 ft 264 kts 103°
2026-05-05 00:08 17.71539 -64.61372 7836 ft 269 kts 103°
2026-05-05 00:08 17.71110 -64.59441 8614 ft 274 kts 103°
2026-05-05 00:08 17.70681 -64.57500 9363 ft 279 kts 103°
2026-05-05 00:09 17.70242 -64.55515 10090 ft 284 kts 103°
2026-05-05 00:09 17.69798 -64.53503 10813 ft 288 kts 103°
2026-05-05 00:09 17.69347 -64.51459 11519 ft 291 kts 103°
2026-05-05 00:09 17.68892 -64.49396 12210 ft 293 kts 103°
2026-05-05 00:10 17.68426 -64.47287 12874 ft 296 kts 103°
2026-05-05 00:10 17.67961 -64.45184 13487 ft 300 kts 102°
2026-05-05 00:10 17.67490 -64.43052 14075 ft 305 kts 102°
2026-05-05 00:10 17.67004 -64.40859 14680 ft 309 kts 102°
2026-05-05 00:11 17.66518 -64.38661 15299 ft 312 kts 102°
2026-05-05 00:11 17.66026 -64.36441 15881 ft 316 kts 102°
2026-05-05 00:11 17.65524 -64.34179 16454 ft 319 kts 102°
2026-05-05 00:11 17.65019 -64.31903 17024 ft 323 kts 102°
2026-05-05 00:12 17.64506 -64.29596 17564 ft 327 kts 102°
2026-05-05 00:12 17.63991 -64.27268 18124 ft 330 kts 102°
2026-05-05 00:12 17.63475 -64.24935 18720 ft 331 kts 102°
2026-05-05 00:12 17.62959 -64.22609 19304 ft 332 kts 102°
2026-05-05 00:13 17.62436 -64.20251 19884 ft 333 kts 103°
2026-05-05 00:13 17.61906 -64.17863 20463 ft 334 kts 103°
2026-05-05 00:13 17.61387 -64.15527 20845 ft 335 kts 103°
2026-05-05 00:13 17.60856 -64.13144 21010 ft 334 kts 103°
2026-05-05 00:14 17.60330 -64.10783 21019 ft 333 kts 103°
2026-05-05 00:14 17.59802 -64.08415 21021 ft 333 kts 103°
2026-05-05 00:14 17.59270 -64.06033 21022 ft 333 kts 103°
2026-05-05 00:14 17.58745 -64.03676 21023 ft 333 kts 103°
2026-05-05 00:15 17.58219 -64.01317 21023 ft 333 kts 103°
2026-05-05 00:15 17.57690 -63.98946 21022 ft 333 kts 103°
2026-05-05 00:15 17.57163 -63.96586 21023 ft 333 kts 103°
2026-05-05 00:15 17.56632 -63.94209 21022 ft 333 kts 103°
2026-05-05 00:16 17.56102 -63.91836 21021 ft 332 kts 103°
2026-05-05 00:16 17.55579 -63.89502 21021 ft 333 kts 103°
2026-05-05 00:16 17.55045 -63.87118 21022 ft 332 kts 103°
2026-05-05 00:16 17.54522 -63.84782 21020 ft 332 kts 103°
2026-05-05 00:17 17.53995 -63.82432 21022 ft 332 kts 103°
2026-05-05 00:17 17.53467 -63.80070 21021 ft 332 kts 103°
2026-05-05 00:17 17.52941 -63.77722 21023 ft 332 kts 103°
2026-05-05 00:17 17.52414 -63.75373 21022 ft 332 kts 103°
2026-05-05 00:18 17.51884 -63.73011 21022 ft 332 kts 103°
2026-05-05 00:18 17.51361 -63.70687 21023 ft 332 kts 103°
2026-05-05 00:18 17.50832 -63.68335 21025 ft 332 kts 103°
2026-05-05 00:18 17.50299 -63.65969 21026 ft 332 kts 103°
2026-05-05 00:19 17.49772 -63.63637 21028 ft 332 kts 103°
2026-05-05 00:19 17.49239 -63.61275 21030 ft 331 kts 103°
2026-05-05 00:19 17.48710 -63.58938 21032 ft 332 kts 103°
2026-05-05 00:19 17.48179 -63.56583 21033 ft 331 kts 103°
2026-05-05 00:20 17.47652 -63.54250 21033 ft 331 kts 103°
2026-05-05 00:20 17.47119 -63.51892 21032 ft 331 kts 103°
2026-05-05 00:20 17.46588 -63.49542 21033 ft 331 kts 103°
2026-05-05 00:20 17.46059 -63.47203 21032 ft 331 kts 103°
2026-05-05 00:21 17.45529 -63.44862 21033 ft 331 kts 103°
2026-05-05 00:21 17.44999 -63.42519 21035 ft 331 kts 103°
2026-05-05 00:21 17.44471 -63.40186 21035 ft 331 kts 103°
2026-05-05 00:21 17.43941 -63.37848 21034 ft 331 kts 103°
2026-05-05 00:22 17.43408 -63.35503 21035 ft 331 kts 103°
2026-05-05 00:22 17.42878 -63.33165 21035 ft 332 kts 103°
2026-05-05 00:22 17.42342 -63.30809 21034 ft 331 kts 103°
2026-05-05 00:22 17.41810 -63.28466 21036 ft 331 kts 103°
2026-05-05 00:23 17.41279 -63.26126 21035 ft 330 kts 103°
2026-05-05 00:23 17.40749 -63.23791 21034 ft 331 kts 103°
2026-05-05 00:23 17.40217 -63.21450 21034 ft 331 kts 103°
2026-05-05 00:23 17.39684 -63.19105 21036 ft 331 kts 103°
2026-05-05 00:24 17.39152 -63.16767 21035 ft 331 kts 103°
2026-05-05 00:24 17.38621 -63.14439 21037 ft 331 kts 104°
2026-05-05 00:24 17.38084 -63.12078 21035 ft 330 kts 104°
2026-05-05 00:24 17.37551 -63.09743 21038 ft 331 kts 103°
2026-05-05 00:25 17.37018 -63.07408 21040 ft 330 kts 103°
2026-05-05 00:25 17.36485 -63.05074 21038 ft 331 kts 103°
2026-05-05 00:25 17.35949 -63.02729 21037 ft 330 kts 103°
2026-05-05 00:25 17.35414 -63.00393 21037 ft 330 kts 103°
2026-05-05 00:26 17.34879 -62.98043 21040 ft 330 kts 103°
2026-05-05 00:26 17.34356 -62.95738 21039 ft 330 kts 103°
2026-05-05 00:26 17.33828 -62.93410 20779 ft 330 kts 103°
2026-05-05 00:26 17.33289 -62.91035 20061 ft 340 kts 103°
2026-05-05 00:27 17.32743 -62.88635 19442 ft 345 kts 103°
2026-05-05 00:27 17.32185 -62.86174 18966 ft 346 kts 103°
2026-05-05 00:27 17.31631 -62.83729 18530 ft 345 kts 102°
2026-05-05 00:27 17.31085 -62.81323 18114 ft 345 kts 102°
2026-05-05 00:28 17.30529 -62.78878 17686 ft 344 kts 102°
2026-05-05 00:28 17.29972 -62.76437 17251 ft 344 kts 102°
2026-05-05 00:28 17.29441 -62.74007 16851 ft 342 kts 100°
2026-05-05 00:28 17.29000 -62.71596 16491 ft 339 kts 99°
2026-05-05 00:29 17.28572 -62.69174 16130 ft 336 kts 99°
2026-05-05 00:29 17.28150 -62.66775 15767 ft 333 kts 99°
2026-05-05 00:29 17.27736 -62.64422 15409 ft 331 kts 99°
2026-05-05 00:29 17.27321 -62.62071 15055 ft 328 kts 99°
2026-05-05 00:30 17.26902 -62.59713 14708 ft 325 kts 99°
2026-05-05 00:30 17.26494 -62.57410 14361 ft 323 kts 99°
2026-05-05 00:30 17.26084 -62.55101 14014 ft 320 kts 99°
2026-05-05 00:30 17.25675 -62.52802 13664 ft 317 kts 99°
2026-05-05 00:31 17.25280 -62.50576 13319 ft 315 kts 99°
2026-05-05 00:31 17.24880 -62.48333 12973 ft 312 kts 99°
2026-05-05 00:31 17.24483 -62.46104 12628 ft 310 kts 99°
2026-05-05 00:31 17.24088 -62.43889 12281 ft 308 kts 99°
2026-05-05 00:32 17.23691 -62.41667 11932 ft 306 kts 99°
2026-05-05 00:32 17.23305 -62.39502 11597 ft 304 kts 100°
2026-05-05 00:32 17.22918 -62.37331 11263 ft 301 kts 100°
2026-05-05 00:32 17.22530 -62.35159 10838 ft 302 kts 100°
2026-05-05 00:33 17.22144 -62.33001 10265 ft 305 kts 100°
2026-05-05 00:33 17.21758 -62.30840 9663 ft 297 kts 100°
2026-05-05 00:33 17.21382 -62.28748 9071 ft 289 kts 100°
2026-05-05 00:33 17.21019 -62.26721 8477 ft 282 kts 101°
2026-05-05 00:34 17.20665 -62.24748 8111 ft 271 kts 101°
2026-05-05 00:34 17.20166 -62.22861 7849 ft 265 kts 112°
2026-05-05 00:34 17.19315 -62.21180 7626 ft 260 kts 121°
2026-05-05 00:34 17.18331 -62.19615 7390 ft 255 kts 123°
2026-05-05 00:35 17.17333 -62.18071 7154 ft 251 kts 123°
2026-05-05 00:35 17.16367 -62.16575 6923 ft 248 kts 123°
2026-05-05 00:35 17.15418 -62.15097 6699 ft 244 kts 123°
2026-05-05 00:35 17.14475 -62.13626 6474 ft 240 kts 123°
2026-05-05 00:36 17.13562 -62.12194 6256 ft 236 kts 123°
2026-05-05 00:36 17.12660 -62.10779 6041 ft 232 kts 122°
2026-05-05 00:36 17.11772 -62.09386 5828 ft 228 kts 122°
2026-05-05 00:36 17.10901 -62.08018 5618 ft 224 kts 122°
2026-05-05 00:37 17.10039 -62.06663 5409 ft 221 kts 122°
2026-05-05 00:37 17.09197 -62.05342 5201 ft 217 kts 123°
2026-05-05 00:37 17.08359 -62.04026 4912 ft 217 kts 123°
2026-05-05 00:37 17.07523 -62.02714 4549 ft 214 kts 123°
2026-05-05 00:38 17.06705 -62.01432 4190 ft 211 kts 123°
2026-05-05 00:38 17.05891 -62.00157 3825 ft 208 kts 123°
2026-05-05 00:38 17.05100 -61.98918 3467 ft 204 kts 122°
2026-05-05 00:38 17.04310 -61.97680 3105 ft 203 kts 122°
2026-05-05 00:39 17.03776 -61.96339 2844 ft 200 kts 91°
2026-05-05 00:39 17.04234 -61.94976 2797 ft 199 kts 58°
2026-05-05 00:39 17.05031 -61.93837 2751 ft 188 kts 60°
2026-05-05 00:39 17.05732 -61.92702 2695 ft 181 kts 62°
2026-05-05 00:40 17.06388 -61.91593 2536 ft 181 kts 62°
2026-05-05 00:40 17.07033 -61.90504 2379 ft 168 kts 62°
2026-05-05 00:40 17.07634 -61.89487 2120 ft 162 kts 63°
2026-05-05 00:40 17.08218 -61.88502 1910 ft 152 kts 62°
2026-05-05 00:41 17.08762 -61.87585 1684 ft 144 kts 62°
2026-05-05 00:41 17.09273 -61.86724 1489 ft 134 kts 62°
2026-05-05 00:41 17.09756 -61.85900 1330 ft 132 kts 62°
2026-05-05 00:41 17.10229 -61.85102 1151 ft 129 kts 63°
2026-05-05 00:42 17.10699 -61.84304 978 ft 128 kts 63°
2026-05-05 00:42 17.11156 -61.83506 859 ft 128 kts 59°
2026-05-05 00:42 17.11606 -61.82751 657 ft 127 kts 59°
2026-05-05 00:42 17.12092 -61.81958 408 ft 128 kts 62°
2026-05-05 00:43 17.12545 -61.81153 243 ft 127 kts 59°
2026-05-05 00:43 17.13015 -61.80376 100 ft 127 kts 59°
2026-05-05 00:43 17.13458 -61.79624 63 ft 94 kts 60°
2026-05-05 00:43 17.13653 -61.79298 59 ft 30 kts 60°
2026-05-05 00:44 17.13798 -61.79053 54 ft 42 kts 59°
2026-05-05 00:44 17.13978 -61.78747 44 ft 46 kts 58°
2026-05-05 00:44 17.14095 -61.78707 42 ft 21 kts 279°
2026-05-05 00:44 17.14107 -61.78841 45 ft 3 kts 266°
2026-05-05 00:45 17.14107 -61.78843 45 ft 0 kts 265°
2026-05-05 00:45 17.14079 -61.78918 47 ft 21 kts 234°
2026-05-05 00:45 17.14008 -61.79025 51 ft 14 kts 253°
2026-05-05 00:46 17.14045 -61.79084 52 ft 6 kts 334°
2026-05-05 00:46 17.14067 -61.79097 52 ft 1 kts 325°
2026-05-05 00:46 17.14068 -61.79097 52 ft 0 kts 325°